Private Wetterstation Wechselburg
Wetterdaten: Sonntag, 26.04.2015
Datum Zeit Temp. +2m Bodentemp. Temp.+5cm Temp. Wind Windchill X Diff Temp. Feuchte +2m Feuchte +5cm Sonnenschein Luftdruck Regen Wind Richtung Richtung Sonnenschein Taupunkt Windchill Windben
26.04.2015 00:00 13,9 C 23,6 C 13,2 C 13,6 C 13,1 C 0,0 C 77 % 81 % 0 % 1010,9 hPa 0,0 l/m 2,6 km/h (1 Bft) W-SW 247 0 min 9,9 C 13,1 C 3,4 km/h (1 Bft)
26.04.2015 00:05 13,9 C 23,6 C 13,3 C 13,6 C 13,0 C 0,0 C 77 % 81 % 0 % 1010,9 hPa 0,0 l/m 2,3 km/h (1 Bft) S 180 0 min 9,9 C 13,0 C 3,1 km/h (1 Bft)
26.04.2015 00:10 13,6 C 23,6 C 13,2 C 13,4 C 12,9 C 0,0 C 78 % 81 % 0 % 1010,9 hPa 0,0 l/m 2,3 km/h (1 Bft) S-SO 157 0 min 9,8 C 12,9 C 2,9 km/h (1 Bft)
26.04.2015 00:15 13,7 C 23,6 C 13,1 C 13,4 C 12,9 C 0,0 C 78 % 81 % 0 % 1010,8 hPa 0,0 l/m 2,7 km/h (1 Bft) SW 225 0 min 9,9 C 12,9 C 3,1 km/h (1 Bft)
26.04.2015 00:20 13,5 C 23,6 C 13,2 C 13,3 C 13,0 C 0,0 C 78 % 82 % 0 % 1010,8 hPa 0,0 l/m 4,3 km/h (1 Bft) SW 225 0 min 9,7 C 13,0 C 9,2 km/h (2 Bft)
26.04.2015 00:25 13,5 C 23,6 C 13,1 C 13,4 C 13,1 C 0,0 C 78 % 82 % 0 % 1010,8 hPa 0,0 l/m 4,7 km/h (1 Bft) S-SW 202 0 min 9,7 C 13,1 C 9,7 km/h (2 Bft)
26.04.2015 00:30 13,5 C 23,6 C 13,1 C 13,4 C 13,1 C 0,0 C 78 % 82 % 0 % 1010,8 hPa 0,0 l/m 4,3 km/h (1 Bft) S-SO 157 0 min 9,7 C 13,1 C 8,4 km/h (2 Bft)
26.04.2015 00:35 13,4 C 23,6 C 13,0 C 13,3 C 13,0 C 0,0 C 78 % 82 % 0 % 1010,8 hPa 0,0 l/m 3,7 km/h (1 Bft) S 180 0 min 9,6 C 13,0 C 6,4 km/h (2 Bft)
26.04.2015 00:43 13,5 C 23,5 C 13,1 C 13,3 C 12,9 C 0,0 C 78 % 82 % 0 % 1010,8 hPa 0,0 l/m 3,2 km/h (1 Bft) N 0 0 min 9,7 C 12,9 C 6,6 km/h (2 Bft)
26.04.2015 00:50 13,2 C 23,5 C 13,1 C 13,2 C 13,1 C 0,0 C 78 % 82 % 0 % 1010,8 hPa 0,0 l/m 3,4 km/h (1 Bft) SW 225 0 min 9,4 C 13,1 C 5,5 km/h (1 Bft)
26.04.2015 00:55 13,3 C 23,5 C 13,0 C 13,2 C 13,1 C 0,0 C 78 % 82 % 0 % 1011,2 hPa 0,0 l/m 3,4 km/h (1 Bft) SW 225 0 min 9,5 C 13,1 C 1,9 km/h (1 Bft)
26.04.2015 01:00 13,3 C 23,5 C 13,1 C 13,2 C 13,1 C 0,0 C 78 % 82 % 0 % 1011,2 hPa 0,0 l/m 3,1 km/h (1 Bft) S 180 0 min 9,5 C 13,1 C 4,3 km/h (1 Bft)
26.04.2015 01:05 13,2 C 23,5 C 13,1 C 13,2 C 13,1 C 0,0 C 78 % 82 % 0 % 1011,2 hPa 0,0 l/m 3,4 km/h (1 Bft) SO 135 0 min 9,4 C 13,1 C 10,3 km/h (2 Bft)
26.04.2015 01:10 13,2 C 23,5 C 13,1 C 13,2 C 13,2 C 0,0 C 78 % 82 % 0 % 1011,2 hPa 0,0 l/m 4,3 km/h (1 Bft) S 180 0 min 9,4 C 13,2 C 6,3 km/h (2 Bft)
26.04.2015 01:15 13,2 C 23,5 C 13,0 C 13,2 C 13,2 C 0,0 C 78 % 82 % 0 % 1010,6 hPa 0,0 l/m 3,7 km/h (1 Bft) S-SW 202 0 min 9,4 C 13,2 C 10,3 km/h (2 Bft)
26.04.2015 01:20 13,3 C 23,5 C 13,1 C 13,2 C 13,1 C 0,0 C 78 % 82 % 0 % 1010,6 hPa 0,0 l/m 2,9 km/h (1 Bft) SO 135 0 min 9,5 C 13,1 C 4,7 km/h (1 Bft)
26.04.2015 01:25 13,2 C 23,5 C 13,1 C 13,2 C 13,1 C 0,0 C 78 % 82 % 0 % 1010,6 hPa 0,0 l/m 2,7 km/h (1 Bft) N-NO 22 0 min 9,4 C 13,1 C 3,9 km/h (1 Bft)
26.04.2015 01:30 13,1 C 23,5 C 13,0 C 13,1 C 13,1 C 0,0 C 78 % 82 % 0 % 1010,6 hPa 0,0 l/m 1,8 km/h (1 Bft) N-NW 337 0 min 9,4 C 13,1 C 0,0 km/h (0 Bft)
26.04.2015 01:35 13,1 C 23,5 C 13,0 C 13,1 C 13,1 C 0,0 C 79 % 82 % 0 % 1010,4 hPa 0,0 l/m 1,6 km/h (1 Bft) W-SW 247 0 min 9,5 C 13,1 C 3,7 km/h (1 Bft)
26.04.2015 01:40 13,0 C 23,5 C 12,9 C 13,1 C 13,1 C 0,1 C 79 % 82 % 0 % 1010,4 hPa 0,0 l/m 1,6 km/h (1 Bft) W 270 0 min 9,4 C 13,1 C 0,0 km/h (0 Bft)
26.04.2015 01:45 13,0 C 23,5 C 12,9 C 13,1 C 13,1 C 0,1 C 79 % 82 % 0 % 1010,4 hPa 0,0 l/m 1,4 km/h (1 Bft) S 180 0 min 9,4 C 13,1 C 0,0 km/h (0 Bft)
26.04.2015 01:50 13,0 C 23,5 C 12,9 C 13,1 C 13,1 C 0,1 C 79 % 82 % 0 % 1010,4 hPa 0,0 l/m 0,5 km/h (0 Bft) S 180 0 min 9,4 C 13,1 C 1,9 km/h (1 Bft)
26.04.2015 01:55 13,1 C 23,5 C 12,9 C 13,1 C 13,1 C 0,0 C 79 % 82 % 0 % 1010,6 hPa 0,0 l/m 1,0 km/h (0 Bft) S-SO 157 0 min 9,5 C 13,1 C 6,3 km/h (2 Bft)
26.04.2015 02:00 13,0 C 23,5 C 12,9 C 13,1 C 13,1 C 0,1 C 79 % 82 % 0 % 1010,6 hPa 0,0 l/m 1,8 km/h (1 Bft) S-SO 157 0 min 9,4 C 13,1 C 1,6 km/h (1 Bft)
26.04.2015 02:05 13,1 C 23,4 C 13,1 C 13,1 C 13,1 C 0,0 C 79 % 82 % 0 % 1010,6 hPa 0,0 l/m 1,6 km/h (1 Bft) S-SO 157 0 min 9,5 C 13,1 C 0,0 km/h (0 Bft)
26.04.2015 02:10 13,1 C 23,4 C 13,1 C 13,1 C 13,1 C 0,0 C 79 % 82 % 0 % 1010,6 hPa 0,0 l/m 1,0 km/h (0 Bft) SW 225 0 min 9,5 C 13,1 C 0,0 km/h (0 Bft)
26.04.2015 02:15 13,1 C 23,4 C 13,1 C 13,2 C 13,2 C 0,1 C 79 % 82 % 0 % 1010,4 hPa 0,0 l/m 1,4 km/h (1 Bft) S-SW 202 0 min 9,5 C 13,2 C 4,5 km/h (1 Bft)
26.04.2015 02:20 13,1 C 23,4 C 13,1 C 13,2 C 13,2 C 0,1 C 79 % 82 % 0 % 1010,4 hPa 0,0 l/m 1,6 km/h (1 Bft) N-NW 337 0 min 9,5 C 13,2 C 2,9 km/h (1 Bft)
26.04.2015 02:25 13,1 C 23,4 C 13,0 C 13,2 C 13,2 C 0,1 C 79 % 82 % 0 % 1010,4 hPa 0,0 l/m 1,1 km/h (1 Bft) S-SW 202 0 min 9,5 C 13,2 C 0,0 km/h (0 Bft)
26.04.2015 02:30 13,1 C 23,4 C 13,1 C 13,2 C 13,2 C 0,1 C 79 % 82 % 0 % 1010,4 hPa 0,0 l/m 1,4 km/h (1 Bft) SO 135 0 min 9,5 C 13,2 C 2,3 km/h (1 Bft)
26.04.2015 02:35 13,1 C 23,4 C 13,0 C 13,2 C 13,2 C 0,1 C 79 % 82 % 0 % 1010,6 hPa 0,0 l/m 2,1 km/h (1 Bft) W-SW 247 0 min 9,5 C 13,2 C 3,5 km/h (1 Bft)
26.04.2015 02:40 13,1 C 23,4 C 13,1 C 13,2 C 13,2 C 0,1 C 79 % 82 % 0 % 1010,6 hPa 0,0 l/m 2,9 km/h (1 Bft) NW 315 0 min 9,5 C 13,2 C 2,6 km/h (1 Bft)
26.04.2015 02:45 13,2 C 23,4 C 13,1 C 13,3 C 13,3 C 0,1 C 79 % 81 % 0 % 1010,6 hPa 0,0 l/m 3,1 km/h (1 Bft) SW 225 0 min 9,6 C 13,3 C 3,4 km/h (1 Bft)
26.04.2015 02:50 13,2 C 23,4 C 13,0 C 13,3 C 13,3 C 0,1 C 78 % 81 % 0 % 1010,6 hPa 0,0 l/m 2,1 km/h (1 Bft) O 90 0 min 9,4 C 13,3 C 0,0 km/h (0 Bft)
26.04.2015 02:55 13,2 C 23,4 C 13,0 C 13,3 C 13,3 C 0,1 C 78 % 81 % 0 % 1010,6 hPa 0,0 l/m 2,4 km/h (1 Bft) O-SO 112 0 min 9,4 C 13,3 C 4,0 km/h (1 Bft)
26.04.2015 03:00 13,3 C 23,4 C 13,1 C 13,3 C 13,2 C 0,0 C 78 % 81 % 0 % 1010,6 hPa 0,0 l/m 2,1 km/h (1 Bft) W-SW 247 0 min 9,5 C 13,2 C 2,4 km/h (1 Bft)
26.04.2015 03:05 13,3 C 23,3 C 13,1 C 13,3 C 13,2 C 0,0 C 78 % 81 % 0 % 1010,6 hPa 0,0 l/m 2,1 km/h (1 Bft) S 180 0 min 9,5 C 13,2 C 8,0 km/h (2 Bft)
26.04.2015 03:10 13,4 C 23,3 C 13,1 C 13,3 C 13,2 C 0,0 C 78 % 81 % 0 % 1010,6 hPa 0,0 l/m 3,7 km/h (1 Bft) S 180 0 min 9,6 C 13,2 C 1,6 km/h (1 Bft)
26.04.2015 03:15 13,4 C 23,3 C 13,0 C 13,3 C 13,2 C 0,0 C 78 % 81 % 0 % 1010,6 hPa 0,0 l/m 3,2 km/h (1 Bft) S 180 0 min 9,6 C 13,2 C 10,8 km/h (2 Bft)
26.04.2015 03:20 13,4 C 23,3 C 13,1 C 13,3 C 13,2 C 0,0 C 78 % 80 % 0 % 1010,6 hPa 0,0 l/m 2,1 km/h (1 Bft) S 180 0 min 9,6 C 13,2 C 5,5 km/h (1 Bft)
26.04.2015 03:25 13,3 C 23,3 C 13,1 C 13,3 C 13,2 C 0,0 C 78 % 80 % 0 % 1010,6 hPa 0,0 l/m 2,4 km/h (1 Bft) S-SW 202 0 min 9,5 C 13,2 C 3,9 km/h (1 Bft)
26.04.2015 03:30 13,3 C 23,3 C 13,0 C 13,3 C 13,2 C 0,0 C 78 % 80 % 0 % 1010,6 hPa 0,0 l/m 1,8 km/h (1 Bft) O-NO 67 0 min 9,5 C 13,2 C 0,0 km/h (0 Bft)
26.04.2015 03:35 13,3 C 23,3 C 13,1 C 13,3 C 13,2 C 0,0 C 78 % 81 % 0 % 1010,7 hPa 0,0 l/m 2,4 km/h (1 Bft) S-SO 157 0 min 9,5 C 13,2 C 5,1 km/h (1 Bft)
26.04.2015 03:41 13,3 C 23,3 C 13,1 C 13,3 C 13,2 C 0,0 C 78 % 81 % 0 % 1010,7 hPa 0,0 l/m 3,4 km/h (1 Bft) N 0 0 min 9,5 C 13,2 C 5,0 km/h (1 Bft)
26.04.2015 03:50 13,3 C 23,3 C 13,1 C 13,3 C 13,2 C 0,0 C 78 % 81 % 0 % 1010,7 hPa 0,0 l/m 2,4 km/h (1 Bft) SW 225 0 min 9,5 C 13,2 C 2,4 km/h (1 Bft)
26.04.2015 03:55 13,2 C 23,3 C 12,9 C 13,2 C 13,1 C 0,0 C 78 % 81 % 0 % 1010,7 hPa 0,0 l/m 1,8 km/h (1 Bft) W-SW 247 0 min 9,4 C 13,1 C 0,0 km/h (0 Bft)
26.04.2015 04:00 13,2 C 23,3 C 12,8 C 13,1 C 13,0 C 0,0 C 79 % 81 % 0 % 1010,7 hPa 0,0 l/m 1,1 km/h (1 Bft) NW 315 0 min 9,6 C 13,0 C 2,3 km/h (1 Bft)
26.04.2015 04:05 13,1 C 23,3 C 12,8 C 13,0 C 12,9 C 0,0 C 79 % 81 % 0 % 1010,7 hPa 0,0 l/m 1,1 km/h (1 Bft) W-SW 247 0 min 9,5 C 12,9 C 4,5 km/h (1 Bft)
26.04.2015 04:10 13,0 C 23,3 C 12,7 C 13,0 C 12,9 C 0,0 C 79 % 81 % 0 % 1010,7 hPa 0,0 l/m 1,4 km/h (1 Bft) S-SO 157 0 min 9,4 C 12,9 C 2,1 km/h (1 Bft)
26.04.2015 04:15 13,0 C 23,3 C 12,6 C 12,9 C 12,8 C 0,0 C 79 % 81 % 0 % 1010,5 hPa 0,0 l/m 1,1 km/h (1 Bft) O 90 0 min 9,4 C 12,8 C 0,0 km/h (0 Bft)
26.04.2015 04:20 13,1 C 23,3 C 12,6 C 13,0 C 12,7 C 0,0 C 79 % 81 % 0 % 1010,5 hPa 0,0 l/m 0,5 km/h (0 Bft) N 360 0 min 9,5 C 12,7 C 0,0 km/h (0 Bft)
26.04.2015 04:25 12,9 C 23,3 C 12,7 C 12,8 C 12,7 C 0,0 C 79 % 81 % 0 % 1010,5 hPa 0,0 l/m 0,3 km/h (0 Bft) W-SW 247 0 min 9,3 C 12,7 C 0,0 km/h (0 Bft)
26.04.2015 04:30 12,8 C 23,3 C 12,4 C 12,7 C 12,6 C 0,0 C 79 % 81 % 0 % 1010,5 hPa 0,0 l/m 0,8 km/h (0 Bft) S-SW 202 0 min 9,2 C 12,6 C 0,0 km/h (0 Bft)
26.04.2015 04:35 12,8 C 23,3 C 12,4 C 12,7 C 12,4 C 0,0 C 79 % 81 % 0 % 1010,4 hPa 0,0 l/m 0,6 km/h (0 Bft) W-SW 247 0 min 9,2 C 12,4 C 0,0 km/h (0 Bft)
26.04.2015 04:40 12,7 C 23,4 C 12,2 C 12,6 C 12,3 C 0,0 C 79 % 82 % 0 % 1010,4 hPa 0,0 l/m 0,3 km/h (0 Bft) S 180 0 min 9,2 C 12,3 C 3,5 km/h (1 Bft)
26.04.2015 04:45 12,7 C 23,4 C 12,3 C 12,5 C 12,2 C 0,0 C 79 % 82 % 0 % 1010,4 hPa 0,0 l/m 0,6 km/h (0 Bft) NW 315 0 min 9,2 C 12,2 C 0,0 km/h (0 Bft)
26.04.2015 04:50 12,5 C 23,4 C 12,0 C 12,4 C 12,1 C 0,0 C 79 % 82 % 0 % 1010,4 hPa 0,0 l/m 0,6 km/h (0 Bft) W 270 0 min 9,0 C 12,1 C 0,0 km/h (0 Bft)
26.04.2015 04:55 12,4 C 23,4 C 12,0 C 12,3 C 12,0 C 0,0 C 79 % 82 % 0 % 1010,4 hPa 0,0 l/m 0,2 km/h (0 Bft) W-SW 247 0 min 8,9 C 12,0 C 0,0 km/h (0 Bft)
26.04.2015 05:00 12,4 C 23,5 C 11,7 C 12,2 C 11,7 C 0,0 C 79 % 82 % 0 % 1010,4 hPa 0,0 l/m 0,2 km/h (0 Bft) S 180 0 min 8,9 C 11,7 C 0,0 km/h (0 Bft)
26.04.2015 05:05 12,2 C 23,5 C 11,6 C 12,0 C 11,5 C 0,0 C 79 % 83 % 0 % 1010,4 hPa 0,0 l/m 0,0 km/h (0 Bft) O-NO 67 0 min 8,7 C 11,5 C 0,0 km/h (0 Bft)
26.04.2015 05:10 12,0 C 23,5 C 11,2 C 11,7 C 11,2 C 0,0 C 80 % 83 % 0 % 1010,4 hPa 0,0 l/m 0,0 km/h (0 Bft) O-NO 67 0 min 8,7 C 11,2 C 0,0 km/h (0 Bft)
26.04.2015 05:15 11,9 C 23,6 C 11,1 C 11,6 C 11,0 C 0,0 C 80 % 83 % 0 % 1010,8 hPa 0,0 l/m 0,0 km/h (0 Bft) NO 45 0 min 8,6 C 11,0 C 0,0 km/h (0 Bft)
26.04.2015 05:20 11,7 C 23,5 C 10,8 C 11,4 C 10,7 C 0,0 C 80 % 83 % 0 % 1010,8 hPa 0,0 l/m 0,0 km/h (0 Bft) NO 45 0 min 8,4 C 10,7 C 0,0 km/h (0 Bft)
26.04.2015 05:25 11,5 C 23,6 C 10,7 C 11,1 C 10,3 C 0,0 C 80 % 84 % 0 % 1010,8 hPa 0,0 l/m 0,0 km/h (0 Bft) O-SO 112 0 min 8,2 C 10,3 C 0,0 km/h (0 Bft)
26.04.2015 05:30 11,3 C 23,6 C 10,5 C 10,9 C 10,2 C 0,0 C 80 % 84 % 0 % 1010,8 hPa 0,0 l/m 0,0 km/h (0 Bft) O-NO 67 0 min 8,0 C 10,2 C 0,0 km/h (0 Bft)
26.04.2015 05:35 11,1 C 23,6 C 10,3 C 10,7 C 10,0 C 0,0 C 80 % 84 % 0 % 1010,4 hPa 0,0 l/m 0,0 km/h (0 Bft) O-NO 67 0 min 7,8 C 10,0 C 0,0 km/h (0 Bft)
26.04.2015 05:40 10,8 C 23,6 C 10,1 C 10,5 C 9,9 C 0,0 C 81 % 85 % 0 % 1010,4 hPa 0,0 l/m 0,0 km/h (0 Bft) NO 45 0 min 7,7 C 9,9 C 0,0 km/h (0 Bft)
26.04.2015 05:45 10,7 C 23,6 C 10,1 C 10,4 C 9,8 C 0,0 C 81 % 85 % 0 % 1010,4 hPa 0,0 l/m 0,0 km/h (0 Bft) O-SO 112 0 min 7,6 C 9,8 C 0,0 km/h (0 Bft)
26.04.2015 05:50 10,4 C 23,6 C 9,8 C 10,2 C 9,8 C 0,0 C 81 % 85 % 0 % 1010,4 hPa 0,0 l/m 0,0 km/h (0 Bft) O-NO 67 0 min 7,3 C 9,8 C 0,0 km/h (0 Bft)
26.04.2015 05:55 10,2 C 23,6 C 9,9 C 10,0 C 9,7 C 0,0 C 82 % 85 % 0 % 1010,2 hPa 0,0 l/m 0,0 km/h (0 Bft) O-NO 67 0 min 7,3 C 9,7 C 0,0 km/h (0 Bft)
26.04.2015 06:00 10,0 C 23,6 C 9,7 C 9,9 C 9,7 C 0,0 C 82 % 85 % 0 % 1010,2 hPa 0,0 l/m 0,0 km/h (0 Bft) O-NO 67 0 min 7,1 C 9,7 C 0,0 km/h (0 Bft)
26.04.2015 06:05 9,9 C 23,6 C 9,6 C 9,8 C 9,5 C 0,0 C 82 % 85 % 0 % 1010,2 hPa 0,0 l/m 0,0 km/h (0 Bft) SW 225 0 min 7,0 C 9,5 C 0,0 km/h (0 Bft)
26.04.2015 06:10 9,7 C 23,6 C 9,5 C 9,6 C 9,5 C 0,0 C 82 % 86 % 0 % 1010,2 hPa 0,0 l/m 0,0 km/h (0 Bft) O-NO 67 0 min 6,8 C 9,5 C 0,0 km/h (0 Bft)
26.04.2015 06:15 9,6 C 23,5 C 9,5 C 9,5 C 9,4 C 0,0 C 82 % 86 % 0 % 1010,2 hPa 0,0 l/m 0,0 km/h (0 Bft) O-NO 67 0 min 6,7 C 9,4 C 0,0 km/h (0 Bft)
26.04.2015 06:20 9,4 C 23,5 C 9,5 C 9,4 C 9,3 C 0,0 C 82 % 86 % 0 % 1010,2 hPa 0,0 l/m 0,0 km/h (0 Bft) O-NO 67 0 min 6,5 C 9,3 C 0,0 km/h (0 Bft)
26.04.2015 06:25 9,3 C 23,5 C 9,4 C 9,3 C 9,3 C 0,0 C 82 % 86 % 0 % 1010,2 hPa 0,0 l/m 0,0 km/h (0 Bft) O-NO 67 0 min 6,4 C 9,3 C 0,0 km/h (0 Bft)
26.04.2015 06:30 9,2 C 23,5 C 9,6 C 9,4 C 9,4 C 0,2 C 83 % 86 % 5 % 1010,2 hPa 0,0 l/m 0,0 km/h (0 Bft) SW 225 0 min 6,5 C 9,4 C 0,0 km/h (0 Bft)
26.04.2015 06:35 9,1 C 23,5 C 9,6 C 9,5 C 9,5 C 0,4 C 83 % 86 % 11 % 1010,5 hPa 0,0 l/m 0,0 km/h (0 Bft) S 180 0 min 6,4 C 9,5 C 0,0 km/h (0 Bft)
26.04.2015 06:42 9,0 C 23,5 C 9,8 C 9,7 C 9,7 C 0,7 C 83 % 87 % 18 % 1010,5 hPa 0,0 l/m 0,0 km/h (0 Bft) N 0 0 min 6,3 C 9,7 C 0,0 km/h (0 Bft)
26.04.2015 06:50 9,1 C 23,5 C 10,0 C 10,0 C 10,0 C 0,9 C 84 % 87 % 24 % 1010,5 hPa 0,0 l/m 0,0 km/h (0 Bft) N 360 0 min 6,5 C 10,0 C 0,0 km/h (0 Bft)
26.04.2015 06:55 9,2 C 23,5 C 10,1 C 10,2 C 10,2 C 1,0 C 84 % 87 % 26 % 1010,4 hPa 0,0 l/m 0,0 km/h (0 Bft) N 360 0 min 6,6 C 10,2 C 0,0 km/h (0 Bft)
26.04.2015 07:00 9,2 C 23,5 C 10,4 C 10,4 C 10,4 C 1,2 C 85 % 87 % 32 % 1010,4 hPa 0,0 l/m 0,0 km/h (0 Bft) O-NO 67 0 min 6,8 C 10,4 C 0,0 km/h (0 Bft)
26.04.2015 07:05 9,3 C 23,5 C 10,5 C 10,7 C 10,7 C 1,4 C 85 % 87 % 37 % 1010,4 hPa 0,0 l/m 0,0 km/h (0 Bft) O-NO 67 0 min 6,9 C 10,7 C 0,0 km/h (0 Bft)
26.04.2015 07:10 9,5 C 23,4 C 10,8 C 11,2 C 11,2 C 1,7 C 85 % 87 % 45 % 1010,4 hPa 0,0 l/m 0,0 km/h (0 Bft) S-SW 202 0 min 7,1 C 11,2 C 0,0 km/h (0 Bft)
26.04.2015 07:15 9,5 C 23,4 C 10,8 C 11,5 C 11,5 C 2,0 C 85 % 86 % 53 % 1010,5 hPa 0,0 l/m 0,0 km/h (0 Bft) W-SW 247 5 min 7,1 C 11,5 C 0,0 km/h (0 Bft)
26.04.2015 07:20 9,4 C 23,4 C 10,8 C 11,6 C 11,6 C 2,2 C 85 % 86 % 58 % 1010,5 hPa 0,0 l/m 0,0 km/h (0 Bft) S 180 5 min 7,0 C 11,6 C 0,0 km/h (0 Bft)
26.04.2015 07:25 9,4 C 23,4 C 10,8 C 11,5 C 11,5 C 2,1 C 85 % 86 % 55 % 1010,5 hPa 0,0 l/m 0,0 km/h (0 Bft) W-SW 247 0 min 7,0 C 11,5 C 0,0 km/h (0 Bft)
26.04.2015 07:30 9,5 C 23,4 C 10,9 C 11,5 C 11,5 C 2,0 C 85 % 86 % 53 % 1010,5 hPa 0,0 l/m 0,0 km/h (0 Bft) O-SO 112 0 min 7,1 C 11,5 C 0,0 km/h (0 Bft)
26.04.2015 07:35 9,6 C 23,3 C 11,1 C 11,6 C 11,6 C 2,0 C 85 % 86 % 53 % 1010,6 hPa 0,0 l/m 0,0 km/h (0 Bft) NO 45 0 min 7,2 C 11,6 C 0,0 km/h (0 Bft)
26.04.2015 07:40 9,8 C 23,3 C 11,5 C 11,9 C 11,9 C 2,1 C 86 % 87 % 55 % 1010,6 hPa 0,0 l/m 0,0 km/h (0 Bft) O-NO 67 0 min 7,6 C 11,9 C 0,0 km/h (0 Bft)
26.04.2015 07:45 10,0 C 23,3 C 11,5 C 12,1 C 12,1 C 2,1 C 86 % 86 % 55 % 1010,6 hPa 0,0 l/m 0,0 km/h (0 Bft) O-SO 112 0 min 7,8 C 12,1 C 0,0 km/h (0 Bft)
26.04.2015 07:50 10,0 C 23,3 C 11,7 C 12,3 C 12,3 C 2,3 C 85 % 86 % 61 % 1010,6 hPa 0,0 l/m 0,0 km/h (0 Bft) W 270 0 min 7,6 C 12,3 C 0,0 km/h (0 Bft)
26.04.2015 07:55 10,1 C 23,2 C 11,7 C 12,6 C 12,6 C 2,5 C 85 % 86 % 66 % 1010,6 hPa 0,0 l/m 0,0 km/h (0 Bft) W 270 0 min 7,7 C 12,6 C 0,0 km/h (0 Bft)
26.04.2015 08:00 10,2 C 23,2 C 11,9 C 12,9 C 12,9 C 2,7 C 85 % 86 % 71 % 1010,6 hPa 0,0 l/m 0,0 km/h (0 Bft) SO 135 0 min 7,8 C 12,9 C 0,0 km/h (0 Bft)
26.04.2015 08:05 10,3 C 23,1 C 12,0 C 13,8 C 13,8 C 3,5 C 86 % 86 % 92 % 1010,6 hPa 0,0 l/m 0,0 km/h (0 Bft) SW 225 5 min 8,1 C 13,8 C 0,0 km/h (0 Bft)
26.04.2015 08:10 10,5 C 23,1 C 12,4 C 14,9 C 14,9 C 4,4 C 86 % 85 % 100 % 1010,6 hPa 0,0 l/m 0,0 km/h (0 Bft) NW 315 5 min 8,3 C 14,9 C 0,0 km/h (0 Bft)
26.04.2015 08:15 10,7 C 23,0 C 12,5 C 15,2 C 15,2 C 4,5 C 86 % 85 % 100 % 1010,2 hPa 0,0 l/m 0,0 km/h (0 Bft) S 180 5 min 8,5 C 15,2 C 0,0 km/h (0 Bft)
26.04.2015 08:20 10,9 C 23,0 C 12,7 C 15,4 C 15,4 C 4,5 C 85 % 85 % 100 % 1010,2 hPa 0,0 l/m 1,3 km/h (1 Bft) S 180 5 min 8,5 C 15,4 C 3,4 km/h (1 Bft)
26.04.2015 08:25 11,0 C 23,0 C 12,9 C 16,0 C 16,0 C 5,0 C 85 % 85 % 100 % 1010,2 hPa 0,0 l/m 1,4 km/h (1 Bft) SO 135 5 min 8,6 C 16,0 C 0,0 km/h (0 Bft)
26.04.2015 08:30 11,2 C 22,9 C 13,4 C 17,6 C 17,6 C 6,4 C 85 % 84 % 100 % 1010,2 hPa 0,0 l/m 1,1 km/h (1 Bft) SW 225 5 min 8,8 C 17,6 C 1,8 km/h (1 Bft)
26.04.2015 08:35 11,5 C 23,0 C 13,6 C 18,5 C 18,5 C 7,0 C 84 % 84 % 100 % 1010,6 hPa 0,0 l/m 1,0 km/h (0 Bft) W-SW 247 5 min 8,9 C 18,5 C 3,1 km/h (1 Bft)
26.04.2015 08:40 11,9 C 22,9 C 13,9 C 19,0 C 19,0 C 7,1 C 84 % 83 % 100 % 1010,6 hPa 0,0 l/m 1,1 km/h (1 Bft) S 180 5 min 9,3 C 19,0 C 3,9 km/h (1 Bft)
26.04.2015 08:45 11,9 C 22,9 C 13,9 C 19,0 C 19,0 C 7,1 C 84 % 83 % 100 % 1010,6 hPa 0,0 l/m 1,1 km/h (1 Bft) S 180 5 min 9,3 C 19,0 C 3,9 km/h (1 Bft)
26.04.2015 08:50 12,0 C 22,9 C 14,1 C 18,8 C 18,8 C 6,8 C 84 % 83 % 100 % 1010,6 hPa 0,0 l/m 1,0 km/h (0 Bft) W-SW 247 5 min 9,4 C 18,8 C 0,0 km/h (0 Bft)
26.04.2015 08:55 12,5 C 22,9 C 14,3 C 17,6 C 17,6 C 5,1 C 82 % 82 % 100 % 1010,6 hPa 0,0 l/m 0,5 km/h (0 Bft) S 180 5 min 9,5 C 17,6 C 0,0 km/h (0 Bft)
26.04.2015 09:00 12,7 C 22,9 C 14,3 C 17,1 C 17,1 C 4,4 C 81 % 81 % 100 % 1010,4 hPa 0,0 l/m 1,4 km/h (1 Bft) W-SW 247 5 min 9,5 C 17,1 C 4,5 km/h (1 Bft)
26.04.2015 09:05 12,7 C 22,9 C 14,2 C 16,2 C 16,2 C 3,5 C 80 % 81 % 92 % 1010,4 hPa 0,0 l/m 2,9 km/h (1 Bft) S 180 5 min 9,3 C 16,2 C 7,2 km/h (2 Bft)
26.04.2015 09:10 12,8 C 22,9 C 14,3 C 15,8 C 15,8 C 3,0 C 80 % 81 % 79 % 1010,4 hPa 0,0 l/m 3,7 km/h (1 Bft) O-SO 112 0 min 9,4 C 15,8 C 4,5 km/h (1 Bft)
26.04.2015 09:15 12,9 C 22,8 C 14,3 C 15,8 C 15,8 C 2,9 C 79 % 81 % 76 % 1010,4 hPa 0,0 l/m 2,4 km/h (1 Bft) O-SO 112 0 min 9,3 C 15,8 C 0,0 km/h (0 Bft)
26.04.2015 09:20 13,0 C 22,8 C 14,5 C 16,0 C 16,0 C 3,0 C 79 % 80 % 79 % 1010,2 hPa 0,0 l/m 1,1 km/h (1 Bft) SO 135 0 min 9,4 C 16,0 C 0,0 km/h (0 Bft)
26.04.2015 09:25 13,3 C 22,8 C 14,6 C 16,6 C 16,6 C 3,3 C 78 % 80 % 87 % 1010,2 hPa 0,0 l/m 0,6 km/h (0 Bft) W-SW 247 5 min 9,5 C 16,6 C 2,1 km/h (1 Bft)
26.04.2015 09:30 13,6 C 22,8 C 14,9 C 17,7 C 17,7 C 4,1 C 78 % 80 % 100 % 1010,2 hPa 0,0 l/m 1,4 km/h (1 Bft) W-SW 247 5 min 9,8 C 17,7 C 3,1 km/h (1 Bft)
26.04.2015 09:35 14,1 C 22,7 C 15,2 C 19,0 C 19,0 C 4,9 C 77 % 79 % 100 % 1010,2 hPa 0,0 l/m 2,1 km/h (1 Bft) SW 225 5 min 10,1 C 19,0 C 3,9 km/h (1 Bft)
26.04.2015 09:43 14,8 C 22,8 C 15,8 C 21,0 C 21,0 C 6,2 C 75 % 77 % 100 % 1010,2 hPa 0,0 l/m 3,4 km/h (1 Bft) N 0 8 min 10,4 C 21,0 C 1,6 km/h (1 Bft)
26.04.2015 09:50 15,2 C 22,8 C 16,2 C 21,2 C 21,2 C 6,0 C 73 % 77 % 100 % 1010,2 hPa 0,0 l/m 3,5 km/h (1 Bft) SW 225 7 min 10,4 C 21,2 C 5,5 km/h (1 Bft)
26.04.2015 09:55 15,6 C 22,8 C 16,8 C 21,3 C 21,3 C 5,7 C 73 % 75 % 100 % 1010,2 hPa 0,0 l/m 3,9 km/h (1 Bft) W-SW 247 5 min 10,8 C 21,3 C 4,0 km/h (1 Bft)
26.04.2015 10:00 15,7 C 22,8 C 17,1 C 21,1 C 21,1 C 5,4 C 72 % 73 % 100 % 1010,1 hPa 0,0 l/m 4,7 km/h (1 Bft) S 180 5 min 10,7 C 21,1 C 5,6 km/h (1 Bft)
26.04.2015 10:05 15,9 C 22,8 C 17,0 C 21,3 C 21,3 C 5,4 C 72 % 72 % 100 % 1010,1 hPa 0,0 l/m 3,9 km/h (1 Bft) W-SW 247 5 min 10,9 C 21,3 C 6,9 km/h (2 Bft)
26.04.2015 10:10 16,1 C 22,8 C 17,1 C 21,5 C 21,5 C 5,4 C 70 % 71 % 100 % 1010,1 hPa 0,0 l/m 4,8 km/h (1 Bft) O-SO 112 5 min 10,6 C 21,5 C 4,2 km/h (1 Bft)
26.04.2015 10:15 16,3 C 22,7 C 17,2 C 21,1 C 21,1 C 4,8 C 70 % 71 % 100 % 1010,1 hPa 0,0 l/m 5,5 km/h (1 Bft) SW 225 5 min 10,8 C 21,1 C 12,9 km/h (3 Bft)
26.04.2015 10:20 16,3 C 22,7 C 17,5 C 20,5 C 20,5 C 4,2 C 69 % 69 % 100 % 1009,9 hPa 0,0 l/m 4,2 km/h (1 Bft) W-NW 292 5 min 10,6 C 20,5 C 8,4 km/h (2 Bft)
26.04.2015 10:25 16,3 C 22,8 C 17,7 C 19,9 C 19,9 C 3,6 C 68 % 68 % 95 % 1009,9 hPa 0,0 l/m 5,0 km/h (1 Bft) S 180 5 min 10,4 C 19,9 C 6,9 km/h (2 Bft)
26.04.2015 10:30 16,4 C 22,8 C 17,6 C 19,7 C 19,7 C 3,3 C 69 % 68 % 87 % 1009,9 hPa 0,0 l/m 4,0 km/h (1 Bft) S 180 5 min 10,7 C 19,7 C 2,9 km/h (1 Bft)
26.04.2015 10:35 16,5 C 22,8 C 17,8 C 19,8 C 19,8 C 3,3 C 69 % 68 % 87 % 1009,9 hPa 0,0 l/m 3,2 km/h (1 Bft) SW 225 5 min 10,8 C 19,8 C 5,8 km/h (2 Bft)
26.04.2015 10:40 16,7 C 22,8 C 18,1 C 19,9 C 19,9 C 3,2 C 67 % 66 % 84 % 1009,9 hPa 0,0 l/m 4,0 km/h (1 Bft) SW 225 0 min 10,5 C 19,9 C 6,3 km/h (2 Bft)
26.04.2015 10:45 16,8 C 22,8 C 18,3 C 20,1 C 20,1 C 3,3 C 67 % 67 % 87 % 1009,9 hPa 0,0 l/m 4,3 km/h (1 Bft) S 180 5 min 10,6 C 20,1 C 4,2 km/h (1 Bft)
26.04.2015 10:50 16,9 C 22,8 C 18,5 C 20,1 C 20,1 C 3,2 C 67 % 65 % 84 % 1009,9 hPa 0,0 l/m 4,3 km/h (1 Bft) S 180 0 min 10,7 C 20,1 C 5,6 km/h (1 Bft)
26.04.2015 10:55 16,8 C 22,8 C 18,5 C 20,1 C 20,1 C 3,3 C 66 % 63 % 87 % 1009,9 hPa 0,0 l/m 4,3 km/h (1 Bft) S-SO 157 5 min 10,4 C 20,1 C 5,8 km/h (2 Bft)
26.04.2015 11:00 16,8 C 22,8 C 18,6 C 20,1 C 20,1 C 3,3 C 66 % 64 % 87 % 1010,0 hPa 0,0 l/m 3,9 km/h (1 Bft) W-SW 247 5 min 10,4 C 20,1 C 3,2 km/h (1 Bft)
26.04.2015 11:05 16,9 C 22,9 C 19,0 C 20,3 C 20,3 C 3,4 C 67 % 63 % 89 % 1010,0 hPa 0,0 l/m 4,3 km/h (1 Bft) S-SO 157 5 min 10,7 C 20,3 C 5,1 km/h (1 Bft)
26.04.2015 11:10 17,0 C 22,9 C 19,1 C 20,5 C 20,5 C 3,5 C 67 % 63 % 92 % 1010,0 hPa 0,0 l/m 4,5 km/h (1 Bft) SW 225 5 min 10,8 C 20,5 C 8,0 km/h (2 Bft)
26.04.2015 11:15 17,0 C 22,9 C 18,9 C 20,3 C 20,3 C 3,3 C 67 % 64 % 87 % 1010,0 hPa 0,0 l/m 4,7 km/h (1 Bft) W-SW 247 5 min 10,8 C 20,3 C 9,2 km/h (2 Bft)
26.04.2015 11:20 16,9 C 22,9 C 18,7 C 19,7 C 19,7 C 2,8 C 68 % 64 % 74 % 1010,0 hPa 0,0 l/m 5,3 km/h (1 Bft) W 270 0 min 11,0 C 19,7 C 5,6 km/h (1 Bft)
26.04.2015 11:25 16,8 C 22,9 C 18,3 C 19,0 C 19,0 C 2,2 C 68 % 65 % 58 % 1010,0 hPa 0,0 l/m 7,1 km/h (2 Bft) SO 135 0 min 10,9 C 19,0 C 4,0 km/h (1 Bft)
26.04.2015 11:30 16,9 C 23,0 C 18,8 C 19,2 C 19,2 C 2,3 C 68 % 67 % 61 % 1010,0 hPa 0,0 l/m 6,1 km/h (2 Bft) W 270 0 min 11,0 C 19,2 C 9,7 km/h (2 Bft)
26.04.2015 11:35 17,2 C 22,9 C 20,1 C 19,7 C 19,7 C 2,5 C 67 % 64 % 66 % 1010,0 hPa 0,0 l/m 6,3 km/h (2 Bft) S-SO 157 0 min 11,0 C 19,7 C 9,7 km/h (2 Bft)
26.04.2015 11:40 17,5 C 22,9 C 20,9 C 20,2 C 20,2 C 2,7 C 66 % 60 % 71 % 1009,9 hPa 0,0 l/m 7,2 km/h (2 Bft) SW 225 0 min 11,1 C 20,2 C 10,3 km/h (2 Bft)
26.04.2015 11:45 17,6 C 23,0 C 20,9 C 20,7 C 20,7 C 3,1 C 65 % 59 % 82 % 1009,9 hPa 0,0 l/m 6,8 km/h (2 Bft) W-SW 247 0 min 10,9 C 20,7 C 15,6 km/h (3 Bft)
26.04.2015 11:50 17,8 C 23,0 C 21,3 C 21,3 C 21,3 C 3,5 C 65 % 60 % 92 % 1009,9 hPa 0,0 l/m 5,6 km/h (1 Bft) SW 225 5 min 11,1 C 21,3 C 9,0 km/h (2 Bft)
26.04.2015 11:55 17,9 C 23,0 C 21,4 C 21,3 C 21,3 C 3,4 C 66 % 58 % 89 % 1009,9 hPa 0,0 l/m 6,0 km/h (2 Bft) W 270 5 min 11,5 C 21,3 C 9,2 km/h (2 Bft)
26.04.2015 12:00 17,9 C 23,0 C 21,5 C 21,5 C 21,5 C 3,6 C 65 % 57 % 95 % 1009,6 hPa 0,0 l/m 6,4 km/h (2 Bft) S-SW 202 5 min 11,2 C 21,5 C 9,7 km/h (2 Bft)
26.04.2015 12:05 17,9 C 23,0 C 21,9 C 21,0 C 21,0 C 3,1 C 64 % 58 % 82 % 1009,6 hPa 0,0 l/m 5,6 km/h (1 Bft) W-SW 247 0 min 11,0 C 21,0 C 9,3 km/h (2 Bft)
26.04.2015 12:10 18,1 C 23,0 C 22,0 C 21,3 C 21,3 C 3,2 C 64 % 56 % 84 % 1009,6 hPa 0,0 l/m 5,8 km/h (2 Bft) S 180 0 min 11,2 C 21,3 C 5,5 km/h (1 Bft)
26.04.2015 12:15 18,4 C 23,0 C 22,3 C 22,2 C 22,2 C 3,8 C 64 % 56 % 100 % 1009,6 hPa 0,0 l/m 5,8 km/h (2 Bft) N-NW 337 5 min 11,5 C 22,2 C 3,4 km/h (1 Bft)
26.04.2015 12:20 18,7 C 23,1 C 22,6 C 23,6 C 23,6 C 4,9 C 64 % 56 % 100 % 1009,6 hPa 0,0 l/m 5,5 km/h (1 Bft) SW 225 5 min 11,7 C 23,6 C 5,6 km/h (1 Bft)
26.04.2015 12:25 18,4 C 23,1 C 21,6 C 22,6 C 22,6 C 4,2 C 62 % 54 % 100 % 1009,6 hPa 0,0 l/m 6,3 km/h (2 Bft) W 270 5 min 11,0 C 22,6 C 5,8 km/h (2 Bft)
26.04.2015 12:30 18,3 C 23,1 C 21,2 C 21,9 C 21,9 C 3,6 C 63 % 56 % 95 % 1009,6 hPa 0,0 l/m 6,1 km/h (2 Bft) W-SW 247 5 min 11,1 C 21,9 C 7,6 km/h (2 Bft)
26.04.2015 12:35 18,5 C 23,1 C 21,5 C 22,1 C 22,1 C 3,6 C 62 % 56 % 95 % 1009,6 hPa 0,0 l/m 6,8 km/h (2 Bft) W 270 5 min 11,1 C 22,1 C 17,1 km/h (3 Bft)
26.04.2015 12:43 18,4 C 23,1 C 21,9 C 21,9 C 21,9 C 3,5 C 62 % 55 % 92 % 1009,3 hPa 0,0 l/m 9,3 km/h (2 Bft) N 0 8 min 11,0 C 21,9 C 6,3 km/h (2 Bft)
26.04.2015 12:50 18,5 C 23,1 C 21,5 C 22,1 C 22,1 C 3,6 C 60 % 54 % 95 % 1009,3 hPa 0,0 l/m 8,2 km/h (2 Bft) S-SW 202 7 min 10,6 C 22,1 C 16,6 km/h (3 Bft)
26.04.2015 12:55 18,5 C 23,2 C 21,8 C 21,6 C 21,6 C 3,1 C 60 % 56 % 82 % 1009,3 hPa 0,0 l/m 6,9 km/h (2 Bft) W-SW 247 0 min 10,6 C 21,6 C 9,2 km/h (2 Bft)
26.04.2015 13:00 18,9 C 23,2 C 23,3 C 23,1 C 23,1 C 4,2 C 60 % 53 % 100 % 1009,2 hPa 0,0 l/m 8,5 km/h (2 Bft) SW 225 5 min 11,0 C 23,1 C 13,0 km/h (3 Bft)
26.04.2015 13:05 18,9 C 23,2 C 22,7 C 22,7 C 22,7 C 3,8 C 59 % 51 % 100 % 1009,2 hPa 0,0 l/m 10,1 km/h (2 Bft) W-SW 247 5 min 10,7 C 22,7 C 12,6 km/h (3 Bft)
26.04.2015 13:10 18,7 C 23,2 C 22,5 C 22,1 C 22,1 C 3,4 C 61 % 53 % 89 % 1009,2 hPa 0,0 l/m 10,9 km/h (2 Bft) W-SW 247 5 min 11,0 C 22,1 C 16,4 km/h (3 Bft)
26.04.2015 13:15 18,6 C 23,2 C 22,0 C 21,4 C 21,4 C 2,8 C 60 % 52 % 74 % 1009,2 hPa 0,0 l/m 10,9 km/h (2 Bft) S-SW 202 0 min 10,7 C 21,4 C 18,2 km/h (3 Bft)
26.04.2015 13:20 18,5 C 23,2 C 21,5 C 21,0 C 21,0 C 2,5 C 59 % 52 % 66 % 1009,1 hPa 0,0 l/m 10,9 km/h (2 Bft) W 270 0 min 10,3 C 21,0 C 6,8 km/h (2 Bft)
26.04.2015 13:25 18,5 C 23,3 C 21,4 C 20,8 C 20,8 C 2,3 C 60 % 53 % 61 % 1009,1 hPa 0,0 l/m 10,1 km/h (2 Bft) SW 225 0 min 10,6 C 20,8 C 22,9 km/h (4 Bft)
26.04.2015 13:30 18,3 C 23,3 C 21,1 C 20,5 C 20,5 C 2,2 C 60 % 54 % 58 % 1009,1 hPa 0,0 l/m 10,8 km/h (2 Bft) W-SW 247 0 min 10,4 C 20,5 C 17,1 km/h (3 Bft)
26.04.2015 13:35 18,2 C 23,3 C 21,5 C 20,6 C 20,6 C 2,4 C 59 % 54 % 63 % 1009,1 hPa 0,0 l/m 11,7 km/h (2 Bft) SW 225 0 min 10,1 C 20,6 C 13,2 km/h (3 Bft)
26.04.2015 13:40 18,4 C 23,3 C 21,6 C 20,8 C 20,8 C 2,4 C 56 % 52 % 63 % 1008,9 hPa 0,0 l/m 10,9 km/h (2 Bft) SW 225 0 min 9,5 C 20,8 C 6,1 km/h (2 Bft)
26.04.2015 13:45 18,7 C 23,3 C 21,5 C 21,2 C 21,2 C 2,5 C 56 % 51 % 66 % 1008,9 hPa 0,0 l/m 8,5 km/h (2 Bft) W-SW 247 0 min 9,7 C 21,2 C 11,6 km/h (2 Bft)
26.04.2015 13:50 18,4 C 23,3 C 21,0 C 20,9 C 20,9 C 2,5 C 56 % 51 % 66 % 1008,9 hPa 0,0 l/m 8,2 km/h (2 Bft) W 270 0 min 9,5 C 20,9 C 13,4 km/h (3 Bft)
26.04.2015 13:55 18,3 C 23,4 C 20,9 C 20,5 C 20,5 C 2,2 C 57 % 53 % 58 % 1008,9 hPa 0,0 l/m 8,9 km/h (2 Bft) S 180 0 min 9,6 C 20,5 C 10,3 km/h (2 Bft)
26.04.2015 14:00 18,8 C 23,4 C 22,4 C 21,6 C 21,6 C 2,8 C 58 % 53 % 74 % 1008,9 hPa 0,0 l/m 8,0 km/h (2 Bft) W 270 0 min 10,4 C 21,6 C 5,1 km/h (1 Bft)
26.04.2015 14:05 19,3 C 23,4 C 23,5 C 23,1 C 23,1 C 3,8 C 56 % 49 % 100 % 1008,9 hPa 0,0 l/m 7,1 km/h (2 Bft) W-SW 247 5 min 10,3 C 23,1 C 10,9 km/h (2 Bft)
26.04.2015 14:10 19,5 C 23,5 C 23,5 C 23,3 C 23,3 C 3,8 C 57 % 50 % 100 % 1008,9 hPa 0,0 l/m 7,4 km/h (2 Bft) W-SW 247 5 min 10,8 C 23,3 C 9,3 km/h (2 Bft)
26.04.2015 14:15 19,6 C 23,5 C 23,7 C 23,9 C 23,9 C 4,3 C 58 % 49 % 100 % 1008,9 hPa 0,0 l/m 7,1 km/h (2 Bft) W-SW 247 5 min 11,1 C 23,9 C 7,2 km/h (2 Bft)
26.04.2015 14:20 20,1 C 23,5 C 23,6 C 24,4 C 24,4 C 4,3 C 58 % 50 % 100 % 1008,7 hPa 0,0 l/m 6,3 km/h (2 Bft) W 270 5 min 11,6 C 24,4 C 7,4 km/h (2 Bft)
26.04.2015 14:25 20,1 C 23,5 C 23,6 C 24,4 C 24,4 C 4,3 C 55 % 49 % 100 % 1008,7 hPa 0,0 l/m 7,9 km/h (2 Bft) SW 225 5 min 10,8 C 24,4 C 10,8 km/h (2 Bft)
26.04.2015 14:30 20,3 C 23,5 C 23,7 C 24,6 C 24,6 C 4,3 C 55 % 49 % 100 % 1008,7 hPa 0,0 l/m 7,9 km/h (2 Bft) W-SW 247 5 min 11,0 C 24,6 C 8,5 km/h (2 Bft)
26.04.2015 14:35 19,9 C 23,6 C 22,7 C 23,2 C 23,2 C 3,3 C 55 % 50 % 87 % 1008,7 hPa 0,0 l/m 7,2 km/h (2 Bft) S-SW 202 5 min 10,6 C 23,2 C 8,7 km/h (2 Bft)
26.04.2015 14:40 19,9 C 23,6 C 23,1 C 23,1 C 23,1 C 3,2 C 54 % 49 % 84 % 1008,1 hPa 0,0 l/m 8,2 km/h (2 Bft) W-SW 247 0 min 10,3 C 23,1 C 9,3 km/h (2 Bft)
26.04.2015 14:45 20,3 C 23,6 C 23,8 C 23,5 C 23,5 C 3,2 C 56 % 49 % 84 % 1008,1 hPa 0,0 l/m 7,6 km/h (2 Bft) O-NO 67 0 min 11,2 C 23,5 C 4,8 km/h (1 Bft)
26.04.2015 14:50 20,6 C 23,6 C 24,0 C 24,7 C 24,7 C 4,1 C 55 % 48 % 100 % 1008,1 hPa 0,0 l/m 6,3 km/h (2 Bft) SW 225 5 min 11,2 C 24,7 C 6,1 km/h (2 Bft)
26.04.2015 14:55 20,5 C 23,6 C 23,3 C 24,4 C 24,4 C 3,9 C 54 % 49 % 100 % 1008,1 hPa 0,0 l/m 6,4 km/h (2 Bft) W-SW 247 5 min 10,9 C 24,4 C 9,7 km/h (2 Bft)
26.04.2015 15:00 20,3 C 23,6 C 23,3 C 23,7 C 23,7 C 3,4 C 54 % 49 % 89 % 1007,9 hPa 0,0 l/m 6,4 km/h (2 Bft) S 180 5 min 10,7 C 23,7 C 4,5 km/h (1 Bft)
26.04.2015 15:05 20,9 C 23,7 C 24,3 C 25,5 C 25,5 C 4,6 C 53 % 49 % 100 % 1007,9 hPa 0,0 l/m 5,6 km/h (1 Bft) W-SW 247 5 min 11,0 C 25,5 C 8,4 km/h (2 Bft)
26.04.2015 15:10 21,0 C 23,7 C 24,0 C 26,0 C 26,0 C 5,0 C 50 % 45 % 100 % 1007,9 hPa 0,0 l/m 6,1 km/h (2 Bft) W-SW 247 5 min 10,2 C 26,0 C 10,5 km/h (2 Bft)
26.04.2015 15:15 21,2 C 23,7 C 23,7 C 25,8 C 25,8 C 4,6 C 48 % 47 % 100 % 1007,9 hPa 0,0 l/m 8,2 km/h (2 Bft) SW 225 5 min 9,7 C 25,8 C 9,3 km/h (2 Bft)
26.04.2015 15:20 21,1 C 23,8 C 23,3 C 25,3 C 25,3 C 4,2 C 49 % 46 % 100 % 1008,0 hPa 0,0 l/m 8,4 km/h (2 Bft) W-SW 247 5 min 10,0 C 25,3 C 11,6 km/h (2 Bft)
26.04.2015 15:25 21,1 C 23,8 C 23,1 C 25,0 C 25,0 C 3,9 C 50 % 48 % 100 % 1008,0 hPa 0,0 l/m 8,7 km/h (2 Bft) SW 225 5 min 10,3 C 25,0 C 8,9 km/h (2 Bft)
26.04.2015 15:30 21,2 C 23,8 C 23,0 C 25,0 C 25,0 C 3,8 C 50 % 49 % 100 % 1008,0 hPa 0,0 l/m 8,2 km/h (2 Bft) W-SW 247 5 min 10,4 C 25,0 C 10,5 km/h (2 Bft)
26.04.2015 15:35 21,2 C 23,8 C 22,8 C 24,8 C 24,8 C 3,6 C 52 % 50 % 95 % 1008,0 hPa 0,0 l/m 7,6 km/h (2 Bft) O 90 5 min 10,9 C 24,8 C 4,8 km/h (1 Bft)
26.04.2015 15:43 21,8 C 23,9 C 23,5 C 26,6 C 26,6 C 4,8 C 50 % 49 % 100 % 1007,8 hPa 0,0 l/m 5,6 km/h (1 Bft) N 0 8 min 10,9 C 26,6 C 5,8 km/h (2 Bft)
26.04.2015 15:50 21,5 C 23,9 C 23,0 C 25,3 C 25,3 C 3,8 C 50 % 48 % 100 % 1007,8 hPa 0,0 l/m 6,1 km/h (2 Bft) W-SW 247 7 min 10,6 C 25,3 C 9,8 km/h (2 Bft)
26.04.2015 15:55 20,9 C 23,9 C 22,4 C 23,6 C 23,6 C 2,7 C 52 % 50 % 71 % 1007,8 hPa 0,0 l/m 6,0 km/h (2 Bft) SW 225 0 min 10,7 C 23,6 C 7,7 km/h (2 Bft)
26.04.2015 16:00 20,9 C 23,9 C 22,9 C 23,9 C 23,9 C 3,0 C 54 % 52 % 79 % 1007,2 hPa 0,0 l/m 6,4 km/h (2 Bft) W-SW 247 0 min 11,2 C 23,9 C 8,9 km/h (2 Bft)
26.04.2015 16:05 21,3 C 24,0 C 23,2 C 25,2 C 25,2 C 3,9 C 52 % 50 % 100 % 1007,2 hPa 0,0 l/m 6,1 km/h (2 Bft) S 180 5 min 11,0 C 25,2 C 6,6 km/h (2 Bft)
26.04.2015 16:10 21,5 C 24,0 C 23,1 C 25,4 C 25,4 C 3,9 C 52 % 50 % 100 % 1007,2 hPa 0,0 l/m 6,0 km/h (2 Bft) SW 225 5 min 11,2 C 25,4 C 5,6 km/h (1 Bft)
26.04.2015 16:15 21,2 C 24,0 C 22,6 C 24,9 C 24,9 C 3,7 C 52 % 50 % 97 % 1007,2 hPa 0,0 l/m 5,8 km/h (2 Bft) W-SW 247 5 min 10,9 C 24,9 C 9,5 km/h (2 Bft)
26.04.2015 16:20 21,3 C 24,0 C 22,7 C 24,7 C 24,7 C 3,4 C 51 % 50 % 89 % 1007,5 hPa 0,0 l/m 6,4 km/h (2 Bft) O-SO 112 5 min 10,7 C 24,7 C 12,7 km/h (3 Bft)
26.04.2015 16:25 21,1 C 24,1 C 22,5 C 24,2 C 24,2 C 3,1 C 51 % 49 % 82 % 1007,5 hPa 0,0 l/m 6,6 km/h (2 Bft) S-SO 157 0 min 10,6 C 24,2 C 4,8 km/h (1 Bft)
26.04.2015 16:30 21,1 C 24,1 C 22,6 C 24,5 C 24,5 C 3,4 C 51 % 49 % 89 % 1007,5 hPa 0,0 l/m 6,3 km/h (2 Bft) SW 225 5 min 10,6 C 24,5 C 9,3 km/h (2 Bft)
26.04.2015 16:35 21,3 C 24,1 C 23,1 C 25,3 C 25,3 C 4,0 C 50 % 48 % 100 % 1007,5 hPa 0,0 l/m 6,3 km/h (2 Bft) S-SW 202 5 min 10,4 C 25,3 C 11,9 km/h (2 Bft)
26.04.2015 16:40 21,3 C 24,1 C 22,8 C 25,3 C 25,3 C 4,0 C 50 % 48 % 100 % 1007,1 hPa 0,0 l/m 6,8 km/h (2 Bft) SW 225 5 min 10,4 C 25,3 C 16,7 km/h (3 Bft)
26.04.2015 16:45 20,5 C 24,2 C 22,0 C 23,1 C 23,1 C 2,6 C 51 % 49 % 68 % 1007,1 hPa 0,0 l/m 8,7 km/h (2 Bft) W-SW 247 0 min 10,0 C 23,1 C 7,9 km/h (2 Bft)
26.04.2015 16:50 20,3 C 24,2 C 21,7 C 22,0 C 22,0 C 1,7 C 52 % 50 % 45 % 1007,1 hPa 0,0 l/m 8,7 km/h (2 Bft) S 180 0 min 10,1 C 22,0 C 5,1 km/h (1 Bft)
26.04.2015 16:55 20,1 C 24,3 C 21,3 C 21,2 C 21,2 C 1,1 C 53 % 51 % 29 % 1007,1 hPa 0,0 l/m 6,6 km/h (2 Bft) W-SW 247 0 min 10,2 C 21,2 C 6,9 km/h (2 Bft)
26.04.2015 17:00 20,0 C 24,3 C 21,1 C 21,0 C 21,0 C 1,0 C 54 % 52 % 26 % 1007,6 hPa 0,0 l/m 6,3 km/h (2 Bft) W-SW 247 0 min 10,4 C 21,0 C 11,6 km/h (2 Bft)
26.04.2015 17:05 19,7 C 24,3 C 20,8 C 20,6 C 20,6 C 0,9 C 55 % 53 % 24 % 1007,6 hPa 0,0 l/m 5,1 km/h (1 Bft) W-SW 247 0 min 10,4 C 20,6 C 5,6 km/h (1 Bft)
26.04.2015 17:10 19,5 C 24,3 C 20,7 C 20,3 C 20,3 C 0,8 C 57 % 56 % 21 % 1007,6 hPa 0,0 l/m 4,2 km/h (1 Bft) NW 315 0 min 10,8 C 20,3 C 4,0 km/h (1 Bft)
26.04.2015 17:15 19,5 C 24,3 C 21,1 C 21,2 C 21,2 C 1,7 C 58 % 56 % 45 % 1007,6 hPa 0,0 l/m 2,3 km/h (1 Bft) NO 45 0 min 11,0 C 21,2 C 2,7 km/h (1 Bft)
26.04.2015 17:20 19,5 C 24,3 C 21,1 C 21,7 C 21,7 C 2,2 C 57 % 55 % 58 % 1007,2 hPa 0,0 l/m 2,1 km/h (1 Bft) S 180 0 min 10,8 C 21,7 C 4,8 km/h (1 Bft)
26.04.2015 17:25 19,6 C 24,4 C 21,5 C 22,7 C 22,7 C 3,1 C 56 % 54 % 82 % 1007,2 hPa 0,0 l/m 2,3 km/h (1 Bft) S 180 0 min 10,6 C 22,7 C 0,0 km/h (0 Bft)
26.04.2015 17:30 20,0 C 24,4 C 21,9 C 23,9 C 23,9 C 3,9 C 55 % 53 % 100 % 1007,2 hPa 0,0 l/m 2,3 km/h (1 Bft) N-NW 337 5 min 10,7 C 23,9 C 2,1 km/h (1 Bft)
26.04.2015 17:35 20,1 C 24,4 C 21,7 C 24,6 C 24,6 C 4,5 C 54 % 53 % 100 % 1007,2 hPa 0,0 l/m 2,9 km/h (1 Bft) SW 225 5 min 10,5 C 24,6 C 5,5 km/h (1 Bft)
26.04.2015 17:40 20,1 C 24,4 C 21,9 C 24,8 C 24,8 C 4,7 C 54 % 53 % 100 % 1007,6 hPa 0,0 l/m 3,4 km/h (1 Bft) SW 225 5 min 10,5 C 24,8 C 3,1 km/h (1 Bft)
26.04.2015 17:45 20,3 C 24,4 C 21,6 C 24,8 C 24,8 C 4,5 C 55 % 53 % 100 % 1007,6 hPa 0,0 l/m 3,1 km/h (1 Bft) W 270 5 min 11,0 C 24,8 C 2,7 km/h (1 Bft)
26.04.2015 17:50 20,3 C 24,5 C 21,9 C 25,0 C 25,0 C 4,7 C 55 % 53 % 100 % 1007,6 hPa 0,0 l/m 2,4 km/h (1 Bft) N-NW 337 5 min 11,0 C 25,0 C 0,0 km/h (0 Bft)
26.04.2015 17:55 20,2 C 24,5 C 21,5 C 24,7 C 24,7 C 4,5 C 55 % 53 % 100 % 1007,6 hPa 0,0 l/m 1,9 km/h (1 Bft) SW 225 5 min 10,9 C 24,7 C 1,9 km/h (1 Bft)
26.04.2015 18:00 20,1 C 24,5 C 21,2 C 25,2 C 25,2 C 5,1 C 55 % 53 % 100 % 1006,9 hPa 0,0 l/m 1,3 km/h (1 Bft) N-NO 22 5 min 10,8 C 25,2 C 1,6 km/h (1 Bft)
26.04.2015 18:05 20,3 C 24,5 C 21,1 C 25,9 C 25,9 C 5,6 C 55 % 55 % 100 % 1006,9 hPa 0,0 l/m 0,6 km/h (0 Bft) O-NO 67 5 min 11,0 C 25,9 C 2,1 km/h (1 Bft)
26.04.2015 18:10 20,4 C 24,5 C 21,2 C 26,0 C 26,0 C 5,6 C 54 % 55 % 100 % 1006,9 hPa 0,0 l/m 0,5 km/h (0 Bft) O-SO 112 5 min 10,8 C 26,0 C 0,0 km/h (0 Bft)
26.04.2015 18:15 20,3 C 24,5 C 20,7 C 26,1 C 26,1 C 5,8 C 54 % 56 % 100 % 1006,9 hPa 0,0 l/m 0,6 km/h (0 Bft) O-NO 67 5 min 10,7 C 26,1 C 2,6 km/h (1 Bft)
26.04.2015 18:20 20,1 C 24,6 C 20,4 C 25,9 C 25,9 C 5,8 C 54 % 56 % 100 % 1006,6 hPa 0,0 l/m 0,8 km/h (0 Bft) O-SO 112 5 min 10,5 C 25,9 C 0,0 km/h (0 Bft)
26.04.2015 18:25 20,3 C 24,6 C 20,3 C 26,2 C 26,2 C 5,9 C 54 % 57 % 100 % 1006,6 hPa 0,0 l/m 1,3 km/h (1 Bft) SW 225 5 min 10,7 C 26,2 C 2,4 km/h (1 Bft)
26.04.2015 18:30 20,4 C 24,6 C 20,1 C 26,0 C 26,0 C 5,6 C 54 % 56 % 100 % 1006,6 hPa 0,0 l/m 1,3 km/h (1 Bft) W-SW 247 5 min 10,8 C 26,0 C 2,9 km/h (1 Bft)
26.04.2015 18:35 20,5 C 24,6 C 19,9 C 24,9 C 24,9 C 4,4 C 54 % 56 % 100 % 1006,6 hPa 0,0 l/m 1,3 km/h (1 Bft) N-NW 337 5 min 10,9 C 24,9 C 0,0 km/h (0 Bft)
26.04.2015 18:42 20,5 C 24,6 C 19,6 C 24,4 C 24,4 C 3,9 C 54 % 57 % 100 % 1005,9 hPa 0,0 l/m 1,1 km/h (1 Bft) N 0 7 min 10,9 C 24,4 C 0,0 km/h (0 Bft)
26.04.2015 18:50 20,4 C 24,6 C 19,3 C 23,7 C 23,7 C 3,3 C 53 % 57 % 87 % 1005,9 hPa 0,0 l/m 0,8 km/h (0 Bft) O-NO 67 8 min 10,5 C 23,7 C 0,0 km/h (0 Bft)
26.04.2015 18:55 20,1 C 24,6 C 18,7 C 22,1 C 22,1 C 2,0 C 54 % 60 % 53 % 1005,9 hPa 0,0 l/m 0,2 km/h (0 Bft) O-NO 67 0 min 10,5 C 22,1 C 0,0 km/h (0 Bft)
26.04.2015 19:00 19,8 C 24,6 C 18,7 C 21,1 C 21,1 C 1,3 C 55 % 60 % 34 % 1006,8 hPa 0,0 l/m 0,6 km/h (0 Bft) O-NO 67 0 min 10,5 C 21,1 C 1,6 km/h (1 Bft)
26.04.2015 19:05 19,3 C 24,6 C 18,5 C 20,1 C 20,1 C 0,8 C 57 % 61 % 21 % 1006,8 hPa 0,0 l/m 0,6 km/h (0 Bft) O-NO 67 0 min 10,6 C 20,1 C 0,0 km/h (0 Bft)
26.04.2015 19:10 19,2 C 24,6 C 18,3 C 19,5 C 19,5 C 0,3 C 57 % 61 % 8 % 1006,8 hPa 0,0 l/m 0,3 km/h (0 Bft) O-NO 67 0 min 10,5 C 19,5 C 0,0 km/h (0 Bft)
26.04.2015 19:15 18,8 C 24,6 C 18,1 C 19,0 C 19,0 C 0,2 C 58 % 61 % 5 % 1006,8 hPa 0,0 l/m 0,0 km/h (0 Bft) O-NO 67 0 min 10,4 C 19,0 C 0,0 km/h (0 Bft)
26.04.2015 19:20 18,9 C 24,6 C 18,0 C 18,9 C 18,8 C 0,0 C 59 % 62 % 0 % 1006,6 hPa 0,0 l/m 0,0 km/h (0 Bft) O-NO 67 0 min 10,7 C 18,8 C 0,0 km/h (0 Bft)
26.04.2015 19:25 18,7 C 24,6 C 17,9 C 18,6 C 18,3 C 0,0 C 60 % 63 % 0 % 1006,6 hPa 0,0 l/m 0,0 km/h (0 Bft) O-NO 67 0 min 10,8 C 18,3 C 0,0 km/h (0 Bft)
26.04.2015 19:30 18,4 C 24,6 C 17,7 C 18,3 C 18,0 C 0,0 C 60 % 64 % 0 % 1006,6 hPa 0,0 l/m 0,0 km/h (0 Bft) O-NO 67 0 min 10,5 C 18,0 C 1,9 km/h (1 Bft)
26.04.2015 19:35 18,2 C 24,6 C 17,3 C 18,0 C 17,7 C 0,0 C 61 % 65 % 0 % 1006,6 hPa 0,0 l/m 0,8 km/h (0 Bft) O 90 0 min 10,6 C 17,7 C 1,8 km/h (1 Bft)
26.04.2015 19:40 18,1 C 24,7 C 17,1 C 17,9 C 17,4 C 0,0 C 63 % 66 % 0 % 1006,6 hPa 0,0 l/m 1,3 km/h (1 Bft) O-SO 112 0 min 10,9 C 17,4 C 2,1 km/h (1 Bft)
26.04.2015 19:45 17,7 C 24,7 C 16,9 C 17,5 C 17,1 C 0,0 C 64 % 68 % 0 % 1006,6 hPa 0,0 l/m 1,1 km/h (1 Bft) O-NO 67 0 min 10,8 C 17,1 C 2,7 km/h (1 Bft)
26.04.2015 19:50 17,6 C 24,7 C 16,8 C 17,4 C 17,0 C 0,0 C 64 % 68 % 0 % 1006,6 hPa 0,0 l/m 1,6 km/h (1 Bft) O-NO 67 0 min 10,7 C 17,0 C 3,2 km/h (1 Bft)
26.04.2015 19:55 17,5 C 24,7 C 16,7 C 17,3 C 17,0 C 0,0 C 64 % 68 % 0 % 1006,6 hPa 0,0 l/m 1,4 km/h (1 Bft) NO 45 0 min 10,6 C 17,0 C 1,8 km/h (1 Bft)
26.04.2015 20:00 17,4 C 24,7 C 16,7 C 17,2 C 16,9 C 0,0 C 64 % 68 % 0 % 1006,8 hPa 0,0 l/m 0,8 km/h (0 Bft) N-NW 337 0 min 10,5 C 16,9 C 0,0 km/h (0 Bft)
26.04.2015 20:05 17,3 C 24,7 C 16,7 C 17,1 C 16,8 C 0,0 C 64 % 68 % 0 % 1006,8 hPa 0,0 l/m 0,0 km/h (0 Bft) N-NW 337 0 min 10,4 C 16,8 C 0,0 km/h (0 Bft)
26.04.2015 20:10 17,2 C 24,7 C 16,7 C 17,0 C 16,6 C 0,0 C 65 % 68 % 0 % 1006,8 hPa 0,0 l/m 0,2 km/h (0 Bft) W-SW 247 0 min 10,6 C 16,6 C 2,7 km/h (1 Bft)
26.04.2015 20:15 17,1 C 24,7 C 16,4 C 16,8 C 16,3 C 0,0 C 66 % 69 % 0 % 1006,8 hPa 0,0 l/m 0,8 km/h (0 Bft) NO 45 0 min 10,7 C 16,3 C 0,0 km/h (0 Bft)
26.04.2015 20:20 17,1 C 24,7 C 16,3 C 16,8 C 16,1 C 0,0 C 66 % 69 % 0 % 1006,9 hPa 0,0 l/m 0,8 km/h (0 Bft) N 360 0 min 10,7 C 16,1 C 0,0 km/h (0 Bft)
26.04.2015 20:25 16,8 C 24,7 C 15,8 C 16,4 C 15,7 C 0,0 C 66 % 70 % 0 % 1006,9 hPa 0,0 l/m 0,2 km/h (0 Bft) NO 45 0 min 10,4 C 15,7 C 1,8 km/h (1 Bft)
26.04.2015 20:30 16,7 C 24,7 C 15,6 C 16,3 C 15,4 C 0,0 C 67 % 70 % 0 % 1006,9 hPa 0,0 l/m 0,3 km/h (0 Bft) O 90 0 min 10,5 C 15,4 C 0,0 km/h (0 Bft)
26.04.2015 20:35 16,3 C 24,7 C 15,2 C 15,9 C 15,0 C 0,0 C 68 % 71 % 0 % 1006,9 hPa 0,0 l/m 0,5 km/h (0 Bft) O-NO 67 0 min 10,4 C 15,0 C 1,9 km/h (1 Bft)
26.04.2015 20:40 16,1 C 24,7 C 15,1 C 15,6 C 14,7 C 0,0 C 68 % 73 % 0 % 1007,1 hPa 0,0 l/m 0,3 km/h (0 Bft) O-NO 67 0 min 10,2 C 14,7 C 0,0 km/h (0 Bft)
26.04.2015 20:45 15,7 C 24,7 C 14,8 C 15,2 C 14,3 C 0,0 C 70 % 73 % 0 % 1007,1 hPa 0,0 l/m 1,4 km/h (1 Bft) NO 45 0 min 10,2 C 14,3 C 0,0 km/h (0 Bft)
26.04.2015 20:50 15,5 C 24,7 C 14,7 C 15,0 C 14,1 C 0,0 C 70 % 74 % 0 % 1007,1 hPa 0,0 l/m 1,9 km/h (1 Bft) N 360 0 min 10,1 C 14,1 C 2,3 km/h (1 Bft)
26.04.2015 20:55 15,2 C 24,7 C 14,2 C 14,7 C 13,7 C 0,0 C 71 % 74 % 0 % 1007,1 hPa 0,0 l/m 1,0 km/h (0 Bft) O 90 0 min 10,0 C 13,7 C 0,0 km/h (0 Bft)
26.04.2015 21:00 15,1 C 24,8 C 14,0 C 14,6 C 13,5 C 0,0 C 71 % 74 % 0 % 1007,3 hPa 0,0 l/m 0,8 km/h (0 Bft) O 90 0 min 9,9 C 13,5 C 0,0 km/h (0 Bft)
26.04.2015 21:05 14,9 C 24,8 C 13,8 C 14,3 C 13,2 C 0,0 C 72 % 75 % 0 % 1007,3 hPa 0,0 l/m 0,5 km/h (0 Bft) O-NO 67 0 min 9,9 C 13,2 C 1,8 km/h (1 Bft)
26.04.2015 21:10 14,8 C 24,8 C 13,6 C 14,2 C 13,1 C 0,0 C 73 % 76 % 0 % 1007,3 hPa 0,0 l/m 0,8 km/h (0 Bft) O-NO 67 0 min 10,0 C 13,1 C 3,4 km/h (1 Bft)
26.04.2015 21:15 14,4 C 24,8 C 13,6 C 13,9 C 13,0 C 0,0 C 74 % 77 % 0 % 1007,3 hPa 0,0 l/m 1,9 km/h (1 Bft) S-SO 157 0 min 9,8 C 13,0 C 0,0 km/h (0 Bft)
26.04.2015 21:20 14,3 C 24,8 C 13,3 C 13,8 C 12,7 C 0,0 C 74 % 77 % 0 % 1006,8 hPa 0,0 l/m 1,4 km/h (1 Bft) NW 315 0 min 9,7 C 12,7 C 0,0 km/h (0 Bft)
26.04.2015 21:25 14,1 C 24,8 C 13,0 C 13,6 C 12,5 C 0,0 C 75 % 78 % 0 % 1006,8 hPa 0,0 l/m 0,8 km/h (0 Bft) O 90 0 min 9,7 C 12,5 C 1,8 km/h (1 Bft)
26.04.2015 21:30 13,9 C 24,9 C 12,8 C 13,4 C 12,4 C 0,0 C 76 % 78 % 0 % 1006,8 hPa 0,0 l/m 0,8 km/h (0 Bft) O 90 0 min 9,7 C 12,4 C 0,0 km/h (0 Bft)
26.04.2015 21:35 13,7 C 24,9 C 12,4 C 13,2 C 12,1 C 0,0 C 76 % 78 % 0 % 1006,8 hPa 0,0 l/m 0,3 km/h (0 Bft) O-NO 67 0 min 9,5 C 12,1 C 0,0 km/h (0 Bft)
26.04.2015 21:42 13,2 C 24,9 C 12,1 C 12,7 C 11,6 C 0,0 C 77 % 79 % 0 % 1007,1 hPa 0,0 l/m 0,2 km/h (0 Bft) N 0 0 min 9,3 C 11,6 C 0,0 km/h (0 Bft)
26.04.2015 21:50 13,1 C 25,1 C 12,0 C 12,6 C 11,6 C 0,0 C 77 % 81 % 0 % 1007,1 hPa 0,0 l/m 0,2 km/h (0 Bft) O-SO 112 0 min 9,2 C 11,6 C 0,0 km/h (0 Bft)
26.04.2015 21:55 12,8 C 24,9 C 11,9 C 12,3 C 11,3 C 0,0 C 77 % 81 % 0 % 1007,1 hPa 0,0 l/m 0,2 km/h (0 Bft) O-NO 67 0 min 8,9 C 11,3 C 1,9 km/h (1 Bft)
26.04.2015 22:00 12,4 C 25,1 C 11,8 C 12,0 C 11,2 C 0,0 C 78 % 82 % 0 % 1007,1 hPa 0,0 l/m 0,8 km/h (0 Bft) O-NO 67 0 min 8,7 C 11,2 C 2,1 km/h (1 Bft)
26.04.2015 22:05 12,1 C 25,1 C 11,6 C 11,8 C 11,1 C 0,0 C 78 % 82 % 0 % 1007,1 hPa 0,0 l/m 0,8 km/h (0 Bft) O-NO 67 0 min 8,4 C 11,1 C 0,0 km/h (0 Bft)
26.04.2015 22:10 12,0 C 25,1 C 11,5 C 11,6 C 10,8 C 0,0 C 79 % 81 % 0 % 1007,1 hPa 0,0 l/m 0,3 km/h (0 Bft) O-NO 67 0 min 8,5 C 10,8 C 0,0 km/h (0 Bft)
26.04.2015 22:15 11,6 C 25,1 C 11,4 C 11,3 C 10,7 C 0,0 C 79 % 84 % 0 % 1007,1 hPa 0,0 l/m 0,0 km/h (0 Bft) O 90 0 min 8,1 C 10,7 C 0,0 km/h (0 Bft)
26.04.2015 22:20 11,5 C 25,0 C 11,4 C 11,2 C 10,7 C 0,0 C 80 % 83 % 0 % 1007,1 hPa 0,0 l/m 0,2 km/h (0 Bft) O-SO 112 0 min 8,2 C 10,7 C 0,0 km/h (0 Bft)
26.04.2015 22:25 11,3 C 25,0 C 11,2 C 11,0 C 10,5 C 0,0 C 80 % 83 % 0 % 1007,1 hPa 0,0 l/m 0,0 km/h (0 Bft) O-NO 67 0 min 8,0 C 10,5 C 0,0 km/h (0 Bft)
26.04.2015 22:30 11,3 C 25,1 C 11,2 C 11,0 C 10,5 C 0,0 C 80 % 83 % 0 % 1007,1 hPa 0,0 l/m 0,0 km/h (0 Bft) O-NO 67 0 min 8,0 C 10,5 C 0,0 km/h (0 Bft)
26.04.2015 22:35 11,1 C 25,0 C 11,0 C 10,8 C 10,2 C 0,0 C 80 % 83 % 0 % 1007,1 hPa 0,0 l/m 0,0 km/h (0 Bft) S-SW 202 0 min 7,8 C 10,2 C 0,0 km/h (0 Bft)
26.04.2015 22:40 10,9 C 25,0 C 10,9 C 10,6 C 10,1 C 0,0 C 80 % 83 % 0 % 1006,6 hPa 0,0 l/m 0,0 km/h (0 Bft) O-NO 67 0 min 7,6 C 10,1 C 0,0 km/h (0 Bft)
26.04.2015 22:45 10,7 C 25,1 C 10,8 C 10,5 C 10,0 C 0,0 C 80 % 83 % 0 % 1006,6 hPa 0,0 l/m 0,0 km/h (0 Bft) N-NO 22 0 min 7,4 C 10,0 C 0,0 km/h (0 Bft)
26.04.2015 22:50 10,5 C 25,0 C 10,7 C 10,3 C 10,0 C 0,0 C 81 % 84 % 0 % 1006,6 hPa 0,0 l/m 0,3 km/h (0 Bft) N-NW 337 0 min 7,4 C 10,0 C 1,6 km/h (1 Bft)
26.04.2015 22:55 10,3 C 25,0 C 10,6 C 10,2 C 10,0 C 0,0 C 81 % 84 % 0 % 1006,6 hPa 0,0 l/m 0,3 km/h (0 Bft) O-NO 67 0 min 7,2 C 10,0 C 0,0 km/h (0 Bft)
26.04.2015 23:00 10,3 C 25,1 C 10,6 C 10,2 C 10,0 C 0,0 C 81 % 84 % 0 % 1006,9 hPa 0,0 l/m 0,2 km/h (0 Bft) O-NO 67 0 min 7,2 C 10,0 C 0,0 km/h (0 Bft)
26.04.2015 23:05 10,0 C 25,1 C 10,4 C 9,9 C 9,7 C 0,0 C 81 % 84 % 0 % 1006,9 hPa 0,0 l/m 0,0 km/h (0 Bft) SW 225 0 min 6,9 C 9,7 C 0,0 km/h (0 Bft)
26.04.2015 23:10 10,0 C 25,1 C 10,4 C 9,9 C 9,6 C 0,0 C 81 % 84 % 0 % 1006,9 hPa 0,0 l/m 0,0 km/h (0 Bft) S 180 0 min 6,9 C 9,6 C 0,0 km/h (0 Bft)
26.04.2015 23:15 9,8 C 25,1 C 10,0 C 9,7 C 9,5 C 0,0 C 82 % 84 % 0 % 1006,9 hPa 0,0 l/m 0,0 km/h (0 Bft) O-SO 112 0 min 6,9 C 9,5 C 0,0 km/h (0 Bft)
26.04.2015 23:20 9,7 C 25,1 C 10,0 C 9,6 C 9,3 C 0,0 C 82 % 85 % 0 % 1006,6 hPa 0,0 l/m 0,0 km/h (0 Bft) N 360 0 min 6,8 C 9,3 C 0,0 km/h (0 Bft)
26.04.2015 23:25 9,6 C 24,9 C 10,2 C 9,5 C 9,3 C 0,0 C 82 % 85 % 0 % 1006,6 hPa 0,0 l/m 0,0 km/h (0 Bft) W-NW 292 0 min 6,7 C 9,3 C 0,0 km/h (0 Bft)
26.04.2015 23:30 9,5 C 24,9 C 10,3 C 9,4 C 9,3 C 0,0 C 82 % 85 % 0 % 1006,6 hPa 0,0 l/m 0,0 km/h (0 Bft) W 270 0 min 6,6 C 9,3 C 0,0 km/h (0 Bft)
26.04.2015 23:35 9,4 C 24,9 C 10,3 C 9,5 C 9,5 C 0,1 C 82 % 85 % 0 % 1006,6 hPa 0,0 l/m 0,0 km/h (0 Bft) N-NW 337 0 min 6,5 C 9,5 C 0,0 km/h (0 Bft)
26.04.2015 23:40 9,4 C 24,8 C 10,3 C 9,5 C 9,5 C 0,1 C 83 % 85 % 0 % 1006,9 hPa 0,0 l/m 0,2 km/h (0 Bft) NW 315 0 min 6,7 C 9,5 C 1,8 km/h (1 Bft)
26.04.2015 23:45 9,3 C 24,9 C 10,3 C 9,7 C 9,7 C 0,4 C 83 % 86 % 0 % 1006,9 hPa 0,0 l/m 0,2 km/h (0 Bft) O-NO 67 0 min 6,6 C 9,7 C 0,0 km/h (0 Bft)
26.04.2015 23:50 9,3 C 24,9 C 10,3 C 9,8 C 9,8 C 0,5 C 83 % 86 % 0 % 1006,9 hPa 0,0 l/m 0,2 km/h (0 Bft) O-NO 67 0 min 6,6 C 9,8 C 0,0 km/h (0 Bft)
26.04.2015 23:55 9,3 C 24,9 C 10,4 C 10,0 C 10,0 C 0,7 C 83 % 86 % 0 % 1006,9 hPa 0,0 l/m 0,0 km/h (0 Bft) O 90 0 min 6,6 C 10,0 C 0,0 km/h (0 Bft)
_ Min-Zeit 06:42 09:35 06:25 06:25 06:20 00:00 15:15 15:10 00:00 18:42 - 05:05 - - - 06:42 06:20 01:30
Minimum _ 9,0 C 22,7 C 9,4 C 9,3 C 9,3 C 0,0 C 48 % 45 % 0 % 1005,9 hPa - 0,0 km/h (0 Bft) - - - 6,3 C 9,3 C 0,0 km/h (0 Bft)
_ Max-Zeit 15:43 21:50 15:05 15:43 15:43 08:40 07:40 06:42 08:10 00:55 00:00 13:35 - - 09:43 12:20 15:43 13:25
Maximum _ 21,8 C 25,1 C 24,3 C 26,6 C 26,6 C 7,1 C 86 % 87 % 100 % 1011,2 hPa 0,0 l/m 11,7 km/h
SW (2 Bft)
- - 8 min 11,7 C 26,6 C 22,9 km/h
SW (4 Bft)
Durchschnitt _ 15,2 C 23,8 C 16,0 C 16,9 C 16,8 C 1,9 C 70 % 71 % 43 % 1009,0 hPa #0,0 l/m 2,8 km/h (1 Bft) W-SW - #7:50 h 9,6 C 16,8 C 3,8 km/h (1 Bft)
2015 www.wetterstation-wechselburg.de